| DS18B20 | SHTC3 | ||||||
|---|---|---|---|---|---|---|---|
| ID | Date d/m/Y & Time | data1 สูง | data2 ต่ำ | data3 นอก | temp pcb | hum pcb | Time |
| 10329 | 09/04/2026 19:33:13 | 28.9  | 29.1  | 26.1  | 28.9  | 70.7  | 19:33 |
| 10328 | 09/04/2026 19:28:30 | 29.0  | 29.1  | 26.1  | 28.8  | 70.7  | 19:28 |
| 10327 | 09/04/2026 19:23:48 | 29.1  | 29.1  | 26.0  | 29.1  | 70.7  | 19:23 |
| 10326 | 09/04/2026 19:19:07 | 29.1  | 29.1  | 26.0  | 29.1  | 70.8  | 19:19 |
| 10325 | 09/04/2026 19:14:26 | 29.1  | 29.2  | 26.1  | 29.0  | 70.8  | 19:14 |
| 10324 | 09/04/2026 19:09:44 | 29.1  | 29.2  | 26.0  | 29.1  | 70.9  | 19:09 |
| 10323 | 09/04/2026 19:05:02 | 29.1  | 29.2  | 26.2  | 29.0  | 70.6  | 19:05 |
| 10322 | 09/04/2026 19:00:21 | 29.2  | 29.2  | 26.3  | 29.3  | 70.8  | 19:00 |
| 10321 | 09/04/2026 18:55:39 | 29.2  | 29.3  | 26.4  | 29.1  | 70.8  | 18:55 |
| 10320 | 09/04/2026 18:50:56 | 29.2  | 29.3  | 26.4  | 29.1  | 70.8  | 18:50 |
| 10319 | 09/04/2026 18:46:14 | 29.3  | 29.4  | 26.5  | 29.2  | 70.8  | 18:46 |
| 10318 | 09/04/2026 18:41:31 | 29.4  | 29.4  | 26.5  | 29.4  | 70.8  | 18:41 |
| 10317 | 09/04/2026 18:36:50 | 29.4  | 29.4  | 26.6  | 29.4  | 70.8  | 18:36 |
| 10316 | 09/04/2026 18:32:08 | 29.4  | 29.5  | 26.5  | 29.4  | 70.8  | 18:32 |
| 10315 | 09/04/2026 18:27:27 | 29.5  | 29.5  | 26.7  | 29.5  | 70.8  | 18:27 |
| 10314 | 09/04/2026 18:22:45 | 29.6  | 29.6  | 26.8  | 29.4  | 70.8  | 18:22 |
| 10313 | 09/04/2026 18:18:04 | 29.7  | 29.6  | 26.9  | 29.6  | 70.8  | 18:18 |
| 10312 | 09/04/2026 18:13:23 | 29.8  | 29.7  | 26.8  | 29.5  | 70.8  | 18:13 |
| 10311 | 09/04/2026 18:08:42 | 30.0  | 29.8  | 26.6  | 29.7  | 70.7  | 18:08 |
| 10310 | 09/04/2026 18:04:01 | 30.4  | 29.9  | 26.7  | 29.7  | 70.6  | 18:04 |
| 10309 | 09/04/2026 17:59:18 | 31.2  | 29.9  | 26.8  | 30.0  | 71.9  | 17:59 |
| 10308 | 09/04/2026 17:54:35 | 29.7  | 29.7  | 26.8  | 29.6  | 70.1  | 17:54 |
| 10307 | 09/04/2026 17:49:53 | 29.6  | 29.8  | 27.1  | 29.6  | 70.2  | 17:49 |
| 10306 | 09/04/2026 17:45:10 | 29.7  | 29.8  | 27.0  | 29.7  | 70.2  | 17:45 |